Wind_Speed
7 7 21 23 15 7 6 14 14 2 4 6 9 9 14 18 7 10 14 16 14 13 5 7 19 23 26 30 36 35 29 24 21 18 13 10 6 7 8 8 8 8 9 10
6 28 20 11 14 13 9 12 17 11 3 7 10 13 15 16 16 10 15 19 15 6 3 5 15 25 34 38 39 32 27 24 21 17 11 4 4 5 6 7 6 7 6 7
27 22 12 15 9 13 14 18 17 11 7 6 7 12 11 13 9 7 10 12 9 10 10 7 9 16 24 31 36 31 26 23 19 12 7 4 3 4 6 5 4 5 4 4
17 21 21 13 19 15 19 16 15 12 4 9 5 6 10 9 17 9 11 9 10 7 2 6 8 11 22 27 33 28 24 21 16 11 6 4 2 2 3 2 3 2 1 1
13 18 23 23 25 20 13 7 7 7 7 2 5 5 6 5 9 14 11 11 10 5 8 8 9 17 24 33 30 26 23 19 15 11 6 4 1 3 2 1 1 3 2 3
14 5 19 16 8 13 5 3 4 4 1 9 14 7 5 6 11 6 6 5 4 6 8 9 12 22 25 29 26 24 21 18 14 11 7 3 2 3 3 2 3 3 4 5
5 9 3 7 15 4 7 7 1 4 1 5 6 6 14 10 9 9 12 8 3 3 11 12 16 12 19 24 25 23 21 16 13 10 7 4 3 3 0 2 3 2 5 7
8 5 15 7 10 13 15 10 6 6 3 5 6 8 9 13 14 10 10 4 8 7 9 12 13 12 19 24 25 22 20 15 14 9 7 5 4 2 0 1 1 2 5 10
8 7 3 14 7 17 12 10 12 1 2 1 4 7 8 6 9 6 1 5 7 7 8 12 11 14 20 25 24 23 18 14 13 10 10 6 5 3 1 1 3 6 8 10
3 2 7 13 8 19 9 11 7 7 6 4 5 5 6 2 6 4 5 8 7 7 8 10 9 13 21 26 24 21 17 14 12 10 9 8 6 4 4 4 6 8 8 9
2 3 3 10 13 17 5 7 3 8 5 5 1 6 7 8 9 9 9 9 9 13 11 12 9 15 23 24 23 19 15 14 11 11 9 8 7 6 6 5 7 7 6 8
3 2 4 10 7 21 22 15 8 7 5 4 4 6 3 9 7 7 7 7 7 6 9 10 11 13 18 22 22 19 15 13 12 12 9 7 8 7 7 6 8 5 6 7
8 4 2 5 3 2 22 19 16 5 4 14 8 6 3 5 6 5 8 9 8 7 9 8 8 9 13 20 22 18 15 14 12 11 10 8 8 8 6 7 8 6 7 8
8 3 5 10 6 5 5 15 19 12 5 3 11 1 5 3 7 5 7 7 9 8 10 10 8 8 13 20 22 18 15 14 14 11 11 11 7 7 7 10 8 8 8 11
2 4 4 10 13 7 6 12 19 18 22 13 5 8 7 8 9 7 8 9 11 11 11 13 12 9 10 16 21 19 17 16 16 14 13 11 8 9 10 14 12 11 11 10
3 4 6 4 7 16 13 10 16 23 21 18 3 10 9 3 6 6 11 12 12 12 13 12 12 11 10 17 22 20 19 17 18 16 14 12 11 11 12 15 15 13 12 10
3 4 7 5 7 4 9 18 11 8 12 18 12 24 5 4 8 10 11 13 14 15 15 15 15 14 16 21 27 24 22 18 19 18 16 15 14 13 13 15 14 13 10 11
4 5 2 4 5 5 3 12 9 14 7 8 8 5 7 11 16 12 12 16 15 14 14 14 13 13 20 26 29 26 22 20 21 20 18 17 18 17 15 15 13 10 9 12
8 2 2 2 2 3 6 10 8 5 4 10 9 12 10 14 7 1 7 11 20 21 18 15 23 24 26 30 32 27 23 22 22 23 20 18 17 19 20 18 13 9 10 12
8 11 5 0 2 4 9 16 7 3 4 13 12 12 13 12 4 6 12 11 10 11 13 16 23 23 28 29 34 29 26 24 24 26 24 22 18 21 24 19 15 11 10 10
2 1 4 2 2 1 13 17 1 6 5 14 11 11 10 5 5 15 16 9 14 16 18 23 24 25 30 32 34 26 26 25 29 27 26 23 20 22 23 22 19 15 12 13
1 1 0 3 1 2 16 5 7 5 6 8 10 8 13 14 17 14 12 8 15 16 18 23 23 22 27 34 32 24 25 34 29 27 28 24 23 21 21 22 22 19 17 15
2 2 2 4 2 7 10 2 1 4 7 8 9 14 12 14 15 15 11 9 13 18 17 26 24 22 25 34 34 27 33 33 30 27 29 27 26 22 22 21 23 22 21 19
1 1 0 4 6 13 16 5 6 10 10 13 12 13 12 13 14 14 11 7 9 12 15 24 23 19 22 30 35 38 35 35 33 29 30 29 26 25 24 23 24 25 24 22
1 3 2 2 7 13 6 10 14 17 14 13 14 13 12 13 13 10 10 7 11 11 17 25 22 22 25 29 29 30 35 36 33 32 31 31 29 29 26 26 26 27 25 25
3 4 1 1 2 6 12 14 17 15 13 14 13 17 17 13 15 12 10 6 9 11 16 19 22 21 25 31 31 33 37 39 36 29 30 32 31 30 30 27 24 26 28 28
Wind_Direction
183 198 215 207 207 206 205 230 244 251 199 240 242 265 268 280 255 269 275 276 275 265 290 189 177 175 172 174 173 175 177 185 189 196 204 224 238 259 291 293 272 259 252 245
174 227 218 191 203 211 212 239 254 268 221 237 272 272 273 277 274 248 266 273 270 247 218 150 157 164 170 171 174 173 179 185 189 194 202 217 255 274 289 297 280 257 265 247
202 222 197 195 191 203 215 224 242 249 315 254 309 290 270 280 277 259 251 246 267 234 205 182 162 161 156 162 170 169 176 183 186 191 196 201 235 278 289 300 296 272 264 260
232 222 193 194 208 189 221 219 242 264 278 269 142 280 301 301 299 288 281 293 273 243 293 126 141 144 156 159 167 169 174 179 183 183 186 196 221 284 272 299 296 244 177 185
211 181 209 206 209 200 233 204 222 233 229 239 256 277 269 273 282 282 276 270 266 228 163 161 150 146 149 163 166 169 172 177 178 177 189 194 256 265 255 252 237 190 170 171
218 207 199 203 181 205 137 202 41 36 65 257 261 206 221 228 237 261 266 270 312 132 125 113 122 140 150 164 164 169 172 176 180 185 194 202 249 233 226 252 255 248 219 188
165 224 169 153 212 158 138 100 275 333 270 230 192 183 249 255 231 226 257 272 114 203 127 139 150 146 145 162 166 170 175 175 181 193 201 204 231 218 285 282 260 271 183 172
171 206 196 173 183 192 196 167 154 203 222 255 161 205 248 225 233 238 249 205 144 171 141 153 151 147 155 164 169 172 174 174 180 189 195 197 198 170 38 293 227 154 166 153
181 237 190 189 158 177 198 190 179 14 188 313 224 279 308 226 255 264 166 151 154 161 156 150 153 150 156 166 171 172 176 180 184 193 190 198 183 168 165 114 121 132 144 150
225 167 195 210 183 188 158 142 178 204 199 219 271 268 232 229 241 291 230 198 162 150 153 151 151 152 163 170 171 175 181 177 185 193 196 200 176 178 164 127 118 141 149 158
6 153 283 142 195 185 166 172 158 170 162 168 275 262 215 230 227 234 222 173 180 159 164 159 150 162 166 170 173 178 179 179 183 187 192 199 177 185 169 141 135 151 160 167
312 313 234 214 166 195 200 193 159 190 195 208 163 267 212 229 256 234 225 153 143 168 153 153 154 149 160 170 178 184 182 185 191 189 188 191 176 181 172 159 155 144 159 172
342 295 193 6 304 174 202 207 209 115 109 206 209 253 307 328 303 251 191 147 139 151 134 132 137 156 164 174 183 189 191 191 192 192 194 179 175 169 161 158 155 149 150 155
354 278 270 217 208 142 150 203 209 200 204 204 222 270 277 280 259 241 144 141 138 146 151 153 156 162 168 179 186 191 194 193 183 180 179 163 169 156 146 146 139 144 148 146
7 277 311 300 288 282 171 181 200 204 214 213 223 241 250 249 239 235 139 130 142 152 165 170 169 165 171 176 188 192 190 182 181 176 172 164 149 138 135 139 133 138 143 139
297 284 342 285 261 274 266 255 214 200 208 229 243 252 228 266 129 187 154 158 165 173 180 170 171 165 173 178 187 193 190 186 185 181 175 162 146 136 138 143 141 142 143 138
287 339 352 303 339 242 258 237 229 209 226 207 197 236 148 202 214 193 167 175 176 180 176 173 178 177 178 183 189 194 195 189 188 186 176 167 152 147 145 150 153 154 157 158
221 299 263 267 302 168 265 26 219 205 53 351 269 324 230 203 213 186 184 178 177 173 181 178 174 177 178 188 192 197 197 193 191 188 183 173 162 159 154 155 161 161 167 167
205 210 246 186 262 266 22 22 350 16 75 9 344 341 339 335 339 244 184 179 182 180 182 177 173 175 179 187 193 196 194 196 195 192 188 184 178 176 169 165 168 162 153 163
307 215 199 90 208 174 356 320 293 150 178 356 346 335 333 331 163 236 183 172 162 158 169 165 166 170 175 188 191 192 195 196 199 199 195 188 183 178 180 177 175 167 161 156
50 41 179 227 242 29 347 326 190 149 288 318 324 318 318 301 265 310 306 193 172 165 166 160 160 170 182 187 187 185 193 196 207 204 200 193 188 184 184 185 181 175 163 155
116 315 165 183 221 131 355 2 63 276 285 287 315 310 307 299 300 297 286 248 152 151 156 165 165 176 177 185 181 182 191 208 208 205 201 198 195 190 186 187 186 180 172 165
88 42 325 8 28 330 341 339 295 289 274 307 306 316 315 309 308 306 278 207 193 164 169 171 172 167 174 181 183 182 202 205 206 205 201 200 198 196 192 185 181 181 181 177
115 237 199 329 332 317 306 286 350 339 321 307 312 316 320 308 313 307 278 201 184 177 170 167 163 169 173 182 186 199 196 202 203 204 205 202 197 195 197 196 191 189 186 187
211 213 214 259 306 325 59 339 333 326 322 319 321 324 329 319 317 299 302 208 183 191 162 165 172 176 178 179 189 190 196 197 195 201 205 206 203 200 197 200 199 201 203 199
198 204 36 63 288 280 284 318 319 324 316 321 322 323 334 336 325 320 301 250 180 167 182 168 176 170 170 178 183 191 195 196 191 189 198 204 203 203 205 203 204 211 213 212
Height
741 750 734 734 740 743 749 754 751 742 734 742 741 739 728 713 714 712 705 699 692 687 682 682 684 692 701 707 715 722 730 737 741 744 746 747 746 747 746 746 745 745 746 746
740 722 718 726 733 740 746 754 750 740 735 740 738 735 721 712 704 703 698 691 685 685 683 684 686 690 694 700 709 720 728 735 739 741 743 742 744 744 744 744 743 743 743 743
715 695 715 723 732 741 744 747 744 749 737 734 736 736 724 704 700 694 691 687 681 681 681 682 687 690 695 701 710 718 727 733 737 739 739 741 743 743 742 742 741 742 741 741
712 708 709 719 725 729 743 727 735 742 749 761 737 766 731 716 700 693 685 679 676 676 683 684 688 693 697 705 712 718 726 732 735 737 738 740 741 741 741 740 740 740 740 740
698 702 710 713 704 714 723 719 729 734 746 749 744 760 728 715 709 693 682 674 671 673 680 686 689 693 699 706 713 719 726 731 733 735 738 739 740 740 739 739 740 740 739 740
690 683 692 694 701 707 709 721 730 739 750 759 741 753 733 719 696 687 675 670 671 678 682 686 692 696 701 708 714 720 725 729 732 735 737 738 739 739 739 739 739 739 739 740
695 695 686 689 709 706 715 739 768 776 777 764 728 745 710 693 687 678 672 669 676 685 682 688 691 696 703 710 714 719 724 727 731 734 736 738 738 738 739 738 738 738 738 740
705 711 691 683 693 704 711 725 757 765 764 742 722 735 695 676 671 669 666 666 679 689 685 687 690 695 702 708 713 719 723 727 730 733 735 737 738 738 738 738 737 738 739 741
695 696 670 672 674 687 706 724 715 735 730 742 730 703 676 666 664 660 664 673 681 688 686 686 691 696 702 707 712 717 722 726 729 732 734 736 737 738 738 738 737 738 741 743
675 693 671 671 674 675 690 697 728 732 750 746 726 715 702 671 667 662 670 675 683 687 688 688 693 697 702 707 712 718 722 725 728 731 734 736 737 738 739 738 738 740 742 744
675 681 674 672 674 682 694 704 709 712 734 741 746 719 681 669 663 664 664 671 681 680 684 687 693 697 701 707 713 718 721 725 727 730 733 735 736 738 739 739 740 741 744 745
699 693 687 676 659 659 667 679 697 705 726 719 724 715 661 662 661 663 664 669 679 682 683 687 691 697 703 707 713 717 720 724 727 730 732 734 736 737 739 739 740 742 744 746
706 703 694 685 670 664 669 671 677 698 711 711 717 708 660 661 659 660 666 670 678 683 686 690 695 699 703 707 712 716 720 722 726 730 732 734 736 737 738 739 741 743 745 746
710 709 695 672 662 665 674 671 672 689 710 707 687 681 665 657 663 662 665 672 677 682 685 688 695 698 702 707 711 715 718 722 725 729 731 734 736 738 738 739 741 743 746 747
720 720 696 684 668 662 660 664 671 680 679 695 681 684 673 661 661 662 664 672 676 681 685 686 692 697 702 706 710 714 717 721 725 728 732 734 736 738 739 739 741 744 746 748
720 716 704 689 669 663 667 663 663 661 669 676 673 674 653 650 657 664 660 666 672 676 679 684 689 693 699 703 708 713 716 720 724 728 731 734 737 739 741 742 743 746 747 749
723 716 710 702 685 668 676 654 661 662 660 660 677 646 653 655 655 656 657 659 663 668 673 679 683 688 694 699 704 711 715 720 723 727 731 734 737 740 743 744 745 747 749 751
716 717 708 711 688 687 654 654 643 653 672 671 656 653 649 640 634 635 636 645 654 662 669 674 678 686 691 696 702 708 714 718 722 726 730 734 737 740 743 746 748 749 750 752
706 710 705 712 700 661 666 678 686 681 688 687 681 671 665 654 642 632 633 634 638 646 654 662 670 679 686 693 699 706 712 717 720 724 729 733 736 739 743 746 749 751 752 754
706 695 705 704 700 669 696 682 676 676 681 687 684 679 673 663 657 639 628 631 639 646 653 659 667 676 683 690 696 703 709 714 718 721 725 731 735 738 742 746 749 751 753 755
705 705 708 706 708 681 686 674 663 675 694 686 682 679 674 669 647 646 639 626 629 636 646 656 664 671 677 685 693 700 705 710 714 719 724 729 733 737 741 745 748 751 754 757
703 704 691 689 687 682 684 677 688 697 692 686 680 675 669 662 652 644 637 635 628 635 645 653 659 667 674 681 689 697 701 705 712 717 722 727 732 736 740 744 748 751 754 757
706 713 709 704 698 693 691 691 691 691 691 683 678 669 664 658 648 641 632 629 630 629 636 645 653 663 670 676 683 690 695 703 709 715 719 725 730 735 739 742 746 750 753 756
711 712 712 707 702 698 692 687 688 687 686 680 674 668 661 656 645 637 627 625 627 628 633 640 650 657 665 671 677 681 690 698 706 712 717 722 727 733 737 741 745 749 752 756
716 718 714 708 702 694 684 688 688 684 682 677 672 665 658 652 642 636 627 620 619 627 629 635 642 649 656 665 673 679 685 694 701 708 714 719 724 729 734 739 743 746 750 753
720 717 710 708 706 710 697 691 688 685 681 676 671 662 653 646 639 632 626 616 616 622 629 630 636 644 651 659 667 674 680 687 695 703 710 715 720 726 730 735 740 744 747 751